Вернуться в каталог

COSMOS 2431

GLONASS

АктивенНавигацияMEO
NORAD 32277·PAYLOAD·🇷🇺 Russia

Запущен Oct 26, 2007 с Baikonur Cosmodrome

Loading…

Ближайшие Пролёты (ближайшие 24 часа)

TLE

УстаревающийSource: Space-Track

Эпоха: Aug 29, 2026, 11:23 UTC

1 32277U 07052C   26241.47453440 -.00000023  00000-0  00000+0 0  9996
2 32277  65.5435 313.3877 0016360 177.4773 183.7679  2.13209302146784

Отслеживайте COSMOS 2431 в реальном времени с AllMySat

Download on the App Store